Flag Weather past 2 weeks in Chesapeake, Virginia, U.S.A.

Now
55 °F

Fog.


Feels Like: 55 °F
Forecast: 52 / 67 °F
Wind: No wind

Location: Chesapeake Municipal Airport

Current Time: Oct 30, 2014 at 8:57:16 AM

Latest Report: Oct 30, 2014 at 8:15 AM


Visibility: 0 mi

Pressure: 30.02 "Hg

Humidity: 94%

Dew point: 54 °F

Location of ChesapeakeLocation

Historic Weather in Chesapeake — Graph

°F

Chesapeake temperature yesterday

Maximum temperature yesterday: 81 °F (at 12:35 PM)
Minimum temperature yesterday: 59 °F (at 11:15 PM)
Average temperature yesterday: 69 °F

Past Weeks' High & Low Weather Summary

 TemperatureHumidityPressure
High84 °F (Oct 28, 1:55 PM)100% (Oct 15, 2:36 PM)30.20 "Hg (Oct 15, 2:36 PM)
Low37 °F (Oct 27, 4:55 AM)22% (Oct 26, 3:15 PM)29.69 "Hg (Oct 18, 2:15 PM)
Average62 °F74%29.92 "Hg
* Reported Oct 15 7:15 AM — Oct 30 7:35 AM, Chesapeake, Weather by CustomWeather, © 2014

Note: Actual official high and low records may vary slightly from our data, if they occured in-between our weather recording intervals... More about our weather records

Advertising

Chesapeake weather history for previous 24 hours

 ConditionsComfort  
Time TempWeatherWind HumidityBarometerVisibility
7:35 AM
Oct 30
54 °FFog.No wind100%30.01 "Hg4 mi
7:15 AM54 °FFog.No wind100%30.01 "Hg1 mi
6:55 AM54 °FFog.No wind100%30.01 "Hg1 mi
6:35 AM54 °FFog.No wind100%30.00 "Hg1 mi
6:15 AM54 °FFog.No wind100%30.01 "Hg0 mi
5:55 AM54 °FFog.No wind94%30.00 "Hg0 mi
5:35 AM54 °FFog.No wind94%29.99 "Hg0 mi
5:15 AM54 °FFog.No wind100%29.99 "Hg3 mi
4:55 AM55 °FPartly cloudy.No wind100%29.98 "Hg7 mi
4:35 AM55 °FPassing clouds.No wind100%29.99 "Hg10 mi
4:15 AM55 °FPartly cloudy.No wind100%29.99 "Hg10 mi
3:55 AM55 °FRain. Overcast.No wind100%30.00 "Hg10 mi
3:35 AM55 °FLight rain. Mostly cloudy.No wind100%30.00 "Hg10 mi
3:15 AM55 °FLight rain. Mostly cloudy.No wind100%29.99 "Hg10 mi
2:55 AM55 °FLight rain. Overcast.No wind100%30.00 "Hg10 mi
2:35 AM55 °FRain. Mostly cloudy.6 mph100%30.00 "Hg10 mi
2:15 AM57 °FHeavy rain. Overcast.No wind94%30.02 "Hg5 mi
1:55 AM57 °FRain. Mostly cloudy.5 mph94%29.98 "Hg10 mi
1:35 AM57 °FRain. Mostly cloudy.5 mph94%29.98 "Hg7 mi
1:15 AM57 °FLight rain. Overcast.7 mph94%29.98 "Hg10 mi
12:55 AM57 °FMostly cloudy.12 mph94%29.97 "Hg10 mi
12:35 AM57 °FLight rain. Overcast.7 mph100%30.00 "Hg10 mi
12:15 AM57 °FLight rain. Overcast.7 mph100%30.00 "Hg7 mi
11:55 PM
Oct 29
59 °FRain. Overcast.No wind88%30.00 "Hg10 mi
11:15 PM59 °FLight rain. Overcast.7 mph94%29.99 "Hg10 mi
10:55 PM61 °FLight rain. Overcast.9 mph88%29.99 "Hg10 mi
10:35 PM61 °FLight rain. Overcast.6 mph88%30.00 "Hg10 mi
10:15 PM61 °FRain. Overcast.7 mph88%29.99 "Hg10 mi
9:55 PM63 °FRain. Overcast.9 mph83%30.00 "Hg10 mi
9:15 PM63 °FOvercast.8 mph77%29.97 "Hg10 mi
8:55 PM64 °FPartly cloudy.7 mph73%29.96 "Hg10 mi
8:35 PM64 °FPassing clouds.6 mph73%29.96 "Hg10 mi
8:15 PM64 °FPassing clouds.10 mph73%29.95 "Hg10 mi
7:55 PM66 °FPassing clouds.10 mph73%29.95 "Hg10 mi
7:35 PM66 °FClear.No wind88%29.93 "Hg10 mi
7:15 PM68 °FClear.No wind83%29.93 "Hg10 mi
6:55 PM66 °FSunny.No wind88%29.92 "Hg10 mi
6:35 PM68 °FSunny.No wind78%29.92 "Hg10 mi
6:15 PM72 °FSunny.No wind69%29.92 "Hg10 mi
5:55 PM73 °FSunny.5 mph69%29.91 "Hg10 mi
5:15 PM77 °FSunny.6 mph57%29.90 "Hg10 mi
4:55 PM77 °FSunny.5 mph57%29.90 "Hg10 mi
4:35 PM79 °FSunny.7 mph54%29.90 "Hg10 mi
4:15 PM79 °FSunny.8 mph54%29.90 "Hg10 mi
3:55 PM79 °FSunny.9 mph51%29.90 "Hg10 mi
3:35 PM81 °FSunny.10 mph48%29.90 "Hg10 mi
3:15 PM81 °FSunny.9 mph48%29.90 "Hg10 mi
2:55 PM79 °FSunny.12 mph51%29.91 "Hg10 mi
2:35 PM81 °FSunny.16 mph48%29.91 "Hg10 mi
2:15 PM81 °FSunny.14 mph48%29.91 "Hg10 mi
1:55 PM79 °FSunny.13 mph54%29.92 "Hg10 mi
1:35 PM79 °FSunny.12 mph54%29.93 "Hg10 mi
1:15 PM79 °FSunny.10 mph54%29.94 "Hg10 mi
12:55 PM81 °FSunny.10 mph54%29.95 "Hg7 mi
12:35 PM81 °FSunny.9 mph54%29.96 "Hg10 mi
12:15 PM79 °FSunny.12 mph58%29.97 "Hg10 mi
11:55 AM79 °FSunny.10 mph58%29.98 "Hg10 mi
11:35 AM77 °FSunny.12 mph61%29.98 "Hg10 mi
11:15 AM75 °FSunny.10 mph65%29.99 "Hg10 mi
10:55 AM73 °FSunny.10 mph69%30.00 "Hg10 mi
10:35 AM72 °FScattered clouds.9 mph73%30.01 "Hg10 mi
10:15 AM70 °FScattered clouds.8 mph78%30.01 "Hg10 mi
9:55 AM70 °FSunny.10 mph78%30.01 "Hg10 mi
9:35 AM68 °FSunny.8 mph83%30.02 "Hg10 mi
9:15 AM66 °FSunny.8 mph88%30.02 "Hg10 mi
8:55 AM64 °FSunny.8 mph94%30.02 "Hg10 mi
8:35 AM64 °FSunny.7 mph88%30.02 "Hg10 mi
8:15 AM63 °FClear.6 mph94%30.02 "Hg10 mi
Weather by CustomWeather, © 2014

See weather overviewHow to use our weather pages